Location: Geography Hall
(41.1195°N, 80.5706°W)
Time: 19:54:15
(UTC+00:00)

Cosmos 1953 Rocket - Pass Details

Date: 29 October 2020
Orbit: 605 x 634 km, 82.5° (Epoch: 02 December)

Event Time Altitude Azimuth Distance (km) Brightness Sun altitude
Rises 23:02:56 0° 351° (N) 2,906 7.0 -8.5°
Reaches altitude 10° 23:05:09 10° 350° (N) 2,000 6.2 -8.9°
Maximum altitude 23:09:35 83° 265° (W) 637 3.7 -9.7°
Drops below altitude 10° 23:14:02 10° 177° (S) 2,001 6.3 -10.6°
Sets 23:16:16 0° 176° (S) 2,907 7.1 -11.0°
